Wetterdaten: Donnerstag, 02.11.2017
Datum Zeit Temp. Auen Feucht Auen Luftdruck Regen Richtung Richtung Windben
02.11.2017 00:00 3,1 C 93 % 1022,4 hPa 0,0 mm W 269 0,0 km/h (0 Bft)
02.11.2017 00:05 3,1 C 93 % 1022,3 hPa 0,0 mm W 269 0,0 km/h (0 Bft)
02.11.2017 00:10 3,0 C 93 % 1022,3 hPa 0,0 mm W 269 0,0 km/h (0 Bft)
02.11.2017 00:15 2,9 C 93 % 1022,2 hPa 0,0 mm W 269 0,0 km/h (0 Bft)
02.11.2017 00:20 2,8 C 93 % 1022,2 hPa 0,0 mm W 269 0,0 km/h (0 Bft)
02.11.2017 00:25 2,8 C 93 % 1022,2 hPa 0,0 mm W 269 0,0 km/h (0 Bft)
02.11.2017 00:30 2,8 C 93 % 1022,1 hPa 0,0 mm W 269 0,0 km/h (0 Bft)
02.11.2017 00:35 2,8 C 93 % 1022,1 hPa 0,0 mm W 269 0,0 km/h (0 Bft)
02.11.2017 00:40 2,8 C 93 % 1022,1 hPa 0,0 mm W 269 0,0 km/h (0 Bft)
02.11.2017 00:45 2,8 C 93 % 1021,9 hPa 0,0 mm W 269 0,0 km/h (0 Bft)
02.11.2017 00:50 2,7 C 93 % 1021,8 hPa 0,0 mm W 269 0,0 km/h (0 Bft)
02.11.2017 00:55 2,7 C 94 % 1021,8 hPa 0,0 mm W 269 0,0 km/h (0 Bft)
02.11.2017 01:00 2,7 C 94 % 1021,7 hPa 0,0 mm W 269 0,0 km/h (0 Bft)
02.11.2017 01:05 2,7 C 94 % 1021,6 hPa 0,0 mm W 269 0,0 km/h (0 Bft)
02.11.2017 01:10 2,7 C 94 % 1021,6 hPa 0,0 mm W 269 0,0 km/h (0 Bft)
02.11.2017 01:15 2,6 C 94 % 1021,5 hPa 0,0 mm W 269 0,0 km/h (0 Bft)
02.11.2017 01:20 2,6 C 94 % 1021,4 hPa 0,0 mm W 269 0,0 km/h (0 Bft)
02.11.2017 01:25 2,6 C 94 % 1021,4 hPa 0,0 mm W 269 0,0 km/h (0 Bft)
02.11.2017 01:30 2,5 C 94 % 1021,3 hPa 0,0 mm W 269 0,0 km/h (0 Bft)
02.11.2017 01:35 2,4 C 94 % 1021,2 hPa 0,0 mm W 269 0,0 km/h (0 Bft)
02.11.2017 01:40 2,4 C 94 % 1021,1 hPa 0,0 mm W 269 0,0 km/h (0 Bft)
02.11.2017 01:45 2,4 C 94 % 1021,0 hPa 0,0 mm W 269 0,0 km/h (0 Bft)
02.11.2017 01:50 2,4 C 94 % 1020,9 hPa 0,0 mm W 269 0,0 km/h (0 Bft)
02.11.2017 01:55 2,3 C 94 % 1020,7 hPa 0,0 mm W 269 0,0 km/h (0 Bft)
02.11.2017 02:00 2,3 C 94 % 1020,7 hPa 0,0 mm W 269 0,0 km/h (0 Bft)
02.11.2017 02:05 2,3 C 94 % 1020,6 hPa 0,0 mm W 269 0,0 km/h (0 Bft)
02.11.2017 02:10 2,3 C 94 % 1020,6 hPa 0,0 mm W 269 0,0 km/h (0 Bft)
02.11.2017 02:15 2,3 C 94 % 1020,5 hPa 0,0 mm W 269 0,0 km/h (0 Bft)
02.11.2017 02:20 2,3 C 94 % 1020,5 hPa 0,0 mm W 269 0,0 km/h (0 Bft)
02.11.2017 02:25 2,3 C 94 % 1020,5 hPa 0,0 mm W 269 0,0 km/h (0 Bft)
02.11.2017 02:30 2,3 C 94 % 1020,4 hPa 0,0 mm W 269 0,0 km/h (0 Bft)
02.11.2017 02:35 2,3 C 94 % 1020,3 hPa 0,0 mm W 269 0,0 km/h (0 Bft)
02.11.2017 02:40 2,3 C 94 % 1020,3 hPa 0,0 mm W 269 0,0 km/h (0 Bft)
02.11.2017 02:45 2,4 C 94 % 1020,2 hPa 0,0 mm W 269 0,0 km/h (0 Bft)
02.11.2017 02:50 2,4 C 94 % 1020,1 hPa 0,0 mm W 269 0,0 km/h (0 Bft)
02.11.2017 02:55 2,4 C 94 % 1020,1 hPa 0,0 mm W 269 0,0 km/h (0 Bft)
02.11.2017 03:00 2,3 C 94 % 1020,1 hPa 0,0 mm W 269 0,0 km/h (0 Bft)
02.11.2017 03:05 2,3 C 94 % 1020,1 hPa 0,0 mm W 269 0,0 km/h (0 Bft)
02.11.2017 03:10 2,3 C 94 % 1020,1 hPa 0,0 mm W 269 0,0 km/h (0 Bft)
02.11.2017 03:15 2,3 C 94 % 1020,0 hPa 0,0 mm W 269 0,0 km/h (0 Bft)
02.11.2017 03:20 2,3 C 94 % 1019,9 hPa 0,0 mm W 269 0,0 km/h (0 Bft)
02.11.2017 03:25 2,3 C 94 % 1019,9 hPa 0,0 mm W 269 0,0 km/h (0 Bft)
02.11.2017 03:30 2,3 C 94 % 1019,8 hPa 0,0 mm W 269 0,0 km/h (0 Bft)
02.11.2017 03:35 2,3 C 94 % 1019,8 hPa 0,0 mm W 269 0,0 km/h (0 Bft)
02.11.2017 03:40 2,3 C 94 % 1019,7 hPa 0,0 mm W 269 0,0 km/h (0 Bft)
02.11.2017 03:45 2,3 C 94 % 1019,7 hPa 0,0 mm W 269 0,0 km/h (0 Bft)
02.11.2017 03:50 2,3 C 95 % 1019,6 hPa 0,0 mm W 269 0,0 km/h (0 Bft)
02.11.2017 03:55 2,3 C 95 % 1019,6 hPa 0,0 mm W 269 0,0 km/h (0 Bft)
02.11.2017 04:00 2,3 C 95 % 1019,6 hPa 0,0 mm W 269 0,0 km/h (0 Bft)
02.11.2017 04:05 2,3 C 95 % 1019,5 hPa 0,0 mm W 269 0,0 km/h (0 Bft)
02.11.2017 04:10 2,3 C 95 % 1019,6 hPa 0,0 mm W 269 0,0 km/h (0 Bft)
02.11.2017 04:15 2,4 C 95 % 1019,5 hPa 0,0 mm W 269 0,0 km/h (0 Bft)
02.11.2017 04:20 2,4 C 95 % 1019,4 hPa 0,0 mm W 269 0,0 km/h (0 Bft)
02.11.2017 04:25 2,3 C 95 % 1019,4 hPa 0,0 mm W 269 0,0 km/h (0 Bft)
02.11.2017 04:30 2,3 C 95 % 1019,2 hPa 0,0 mm W 269 0,0 km/h (0 Bft)
02.11.2017 04:35 2,3 C 95 % 1019,2 hPa 0,0 mm W 269 0,0 km/h (0 Bft)
02.11.2017 04:40 2,3 C 95 % 1019,2 hPa 0,0 mm W 269 0,0 km/h (0 Bft)
02.11.2017 04:45 2,4 C 95 % 1019,1 hPa 0,0 mm W 269 0,0 km/h (0 Bft)
02.11.2017 04:50 2,5 C 95 % 1019,1 hPa 0,0 mm W 269 3,2 km/h (1 Bft)
02.11.2017 04:55 2,6 C 95 % 1019,0 hPa 0,0 mm W 269 3,2 km/h (1 Bft)
02.11.2017 05:00 2,6 C 95 % 1019,0 hPa 0,0 mm W 269 3,2 km/h (1 Bft)
02.11.2017 05:05 2,6 C 95 % 1019,0 hPa 0,0 mm W 269 1,6 km/h (1 Bft)
02.11.2017 05:10 2,6 C 95 % 1018,9 hPa 0,0 mm W 269 1,6 km/h (1 Bft)
02.11.2017 05:15 2,6 C 95 % 1018,9 hPa 0,0 mm W 269 3,2 km/h (1 Bft)
02.11.2017 05:20 2,7 C 95 % 1018,9 hPa 0,0 mm W 269 4,8 km/h (1 Bft)
02.11.2017 05:25 2,7 C 95 % 1018,8 hPa 0,0 mm W 269 3,2 km/h (1 Bft)
02.11.2017 05:30 2,7 C 95 % 1018,8 hPa 0,0 mm W 269 1,6 km/h (1 Bft)
02.11.2017 05:35 2,7 C 95 % 1018,7 hPa 0,0 mm W 269 0,0 km/h (0 Bft)
02.11.2017 05:40 2,7 C 95 % 1018,7 hPa 0,0 mm W 269 0,0 km/h (0 Bft)
02.11.2017 05:45 2,7 C 95 % 1018,7 hPa 0,0 mm W 269 4,8 km/h (1 Bft)
02.11.2017 05:50 2,8 C 95 % 1018,7 hPa 0,0 mm W 269 6,4 km/h (2 Bft)
02.11.2017 05:55 2,8 C 95 % 1018,6 hPa 0,0 mm W 269 4,8 km/h (1 Bft)
02.11.2017 06:00 2,8 C 95 % 1018,6 hPa 0,0 mm W 269 4,8 km/h (1 Bft)
02.11.2017 06:05 2,9 C 95 % 1018,6 hPa 0,0 mm W 269 4,8 km/h (1 Bft)
02.11.2017 06:10 2,9 C 95 % 1018,6 hPa 0,0 mm W 269 1,6 km/h (1 Bft)
02.11.2017 06:15 3,0 C 95 % 1018,5 hPa 0,0 mm W 269 0,0 km/h (0 Bft)
02.11.2017 06:20 3,0 C 95 % 1018,5 hPa 0,0 mm W 269 0,0 km/h (0 Bft)
02.11.2017 06:25 3,1 C 95 % 1018,5 hPa 0,0 mm W 269 0,0 km/h (0 Bft)
02.11.2017 06:30 3,1 C 95 % 1018,5 hPa 0,0 mm W 269 0,0 km/h (0 Bft)
02.11.2017 06:35 3,1 C 95 % 1018,6 hPa 0,0 mm W 269 0,0 km/h (0 Bft)
02.11.2017 06:40 3,2 C 95 % 1018,5 hPa 0,0 mm W 269 0,0 km/h (0 Bft)
02.11.2017 06:45 3,2 C 95 % 1018,7 hPa 0,0 mm W 269 0,0 km/h (0 Bft)
02.11.2017 06:50 3,1 C 95 % 1018,7 hPa 0,0 mm W 269 0,0 km/h (0 Bft)
02.11.2017 06:55 3,1 C 95 % 1018,8 hPa 0,0 mm W 269 0,0 km/h (0 Bft)
02.11.2017 07:00 3,2 C 95 % 1018,8 hPa 0,0 mm W 269 0,0 km/h (0 Bft)
02.11.2017 07:05 3,2 C 95 % 1018,8 hPa 0,0 mm W 269 0,0 km/h (0 Bft)
02.11.2017 07:10 3,3 C 95 % 1018,8 hPa 0,0 mm W 269 0,0 km/h (0 Bft)
02.11.2017 07:15 3,3 C 95 % 1018,9 hPa 0,0 mm W 269 0,0 km/h (0 Bft)
02.11.2017 07:20 3,4 C 95 % 1018,9 hPa 0,0 mm W 269 3,2 km/h (1 Bft)
02.11.2017 07:25 3,5 C 95 % 1019,0 hPa 0,0 mm W 269 4,8 km/h (1 Bft)
02.11.2017 07:30 3,6 C 95 % 1019,0 hPa 0,0 mm W 269 4,8 km/h (1 Bft)
02.11.2017 07:35 3,7 C 95 % 1019,0 hPa 0,0 mm W 269 4,8 km/h (1 Bft)
02.11.2017 07:40 3,8 C 95 % 1019,0 hPa 0,0 mm W 269 0,0 km/h (0 Bft)
02.11.2017 07:45 3,8 C 95 % 1019,0 hPa 0,0 mm W 269 0,0 km/h (0 Bft)
02.11.2017 07:50 3,9 C 95 % 1019,2 hPa 0,0 mm W 269 0,0 km/h (0 Bft)
02.11.2017 07:55 3,9 C 95 % 1019,1 hPa 0,0 mm W 269 0,0 km/h (0 Bft)
02.11.2017 08:00 4,0 C 95 % 1019,2 hPa 0,0 mm W 269 0,0 km/h (0 Bft)
02.11.2017 08:05 4,1 C 95 % 1019,2 hPa 0,0 mm W 269 0,0 km/h (0 Bft)
02.11.2017 08:10 4,3 C 95 % 1019,2 hPa 0,0 mm W 269 0,0 km/h (0 Bft)
02.11.2017 08:15 4,5 C 95 % 1019,1 hPa 0,0 mm W 269 0,0 km/h (0 Bft)
02.11.2017 08:20 4,6 C 95 % 1019,1 hPa 0,0 mm W 269 0,0 km/h (0 Bft)
02.11.2017 08:25 4,8 C 95 % 1019,0 hPa 0,0 mm W 269 0,0 km/h (0 Bft)
02.11.2017 08:30 4,9 C 95 % 1019,0 hPa 0,0 mm W 269 0,0 km/h (0 Bft)
02.11.2017 08:35 5,1 C 95 % 1018,9 hPa 0,0 mm W 269 3,2 km/h (1 Bft)
02.11.2017 08:40 5,3 C 95 % 1018,9 hPa 0,0 mm W 269 0,0 km/h (0 Bft)
02.11.2017 08:45 5,6 C 95 % 1018,9 hPa 0,0 mm W 269 0,0 km/h (0 Bft)
02.11.2017 08:50 5,7 C 95 % 1018,9 hPa 0,0 mm W 269 0,0 km/h (0 Bft)
02.11.2017 08:55 5,8 C 95 % 1018,8 hPa 0,0 mm W 269 0,0 km/h (0 Bft)
02.11.2017 09:00 5,9 C 95 % 1018,9 hPa 0,0 mm W 269 0,0 km/h (0 Bft)
02.11.2017 09:05 6,1 C 95 % 1018,7 hPa 0,0 mm W 269 0,0 km/h (0 Bft)
02.11.2017 09:10 6,2 C 95 % 1018,7 hPa 0,0 mm W 269 0,0 km/h (0 Bft)
02.11.2017 09:15 6,3 C 95 % 1018,7 hPa 0,0 mm W 269 0,0 km/h (0 Bft)
02.11.2017 09:20 6,5 C 95 % 1018,7 hPa 0,0 mm W 269 0,0 km/h (0 Bft)
02.11.2017 09:25 6,8 C 95 % 1018,6 hPa 0,0 mm W 269 0,0 km/h (0 Bft)
02.11.2017 09:30 6,8 C 95 % 1018,6 hPa 0,0 mm W 269 0,0 km/h (0 Bft)
02.11.2017 09:35 7,2 C 95 % 1018,5 hPa 0,0 mm W 269 0,0 km/h (0 Bft)
02.11.2017 09:40 7,3 C 95 % 1018,5 hPa 0,0 mm W 269 0,0 km/h (0 Bft)
02.11.2017 09:45 7,3 C 95 % 1018,5 hPa 0,0 mm W 269 0,0 km/h (0 Bft)
02.11.2017 09:50 7,3 C 95 % 1018,4 hPa 0,0 mm W 269 0,0 km/h (0 Bft)
02.11.2017 09:55 7,7 C 95 % 1018,4 hPa 0,0 mm W 269 0,0 km/h (0 Bft)
02.11.2017 10:00 7,7 C 94 % 1018,3 hPa 0,0 mm W 269 0,0 km/h (0 Bft)
02.11.2017 10:05 7,9 C 94 % 1018,4 hPa 0,0 mm W 269 0,0 km/h (0 Bft)
02.11.2017 10:10 8,0 C 94 % 1018,4 hPa 0,0 mm W 269 0,0 km/h (0 Bft)
02.11.2017 10:15 8,2 C 94 % 1018,3 hPa 0,0 mm W 269 0,0 km/h (0 Bft)
02.11.2017 10:20 8,3 C 93 % 1018,3 hPa 0,0 mm W 269 0,0 km/h (0 Bft)
02.11.2017 10:25 8,7 C 93 % 1018,3 hPa 0,0 mm W 269 0,0 km/h (0 Bft)
02.11.2017 10:30 8,7 C 92 % 1018,4 hPa 0,0 mm W 269 0,0 km/h (0 Bft)
02.11.2017 10:35 8,9 C 92 % 1018,2 hPa 0,0 mm W 269 0,0 km/h (0 Bft)
02.11.2017 10:40 9,1 C 91 % 1018,2 hPa 0,0 mm W 269 0,0 km/h (0 Bft)
02.11.2017 10:45 9,2 C 91 % 1018,3 hPa 0,0 mm W 269 0,0 km/h (0 Bft)
02.11.2017 10:50 9,3 C 91 % 1018,3 hPa 0,0 mm W 269 0,0 km/h (0 Bft)
02.11.2017 10:55 9,5 C 91 % 1018,1 hPa 0,0 mm W 269 0,0 km/h (0 Bft)
02.11.2017 11:00 9,8 C 91 % 1018,1 hPa 0,0 mm W 269 3,2 km/h (1 Bft)
02.11.2017 11:05 9,8 C 90 % 1018,0 hPa 0,0 mm W 269 1,6 km/h (1 Bft)
02.11.2017 11:10 9,9 C 90 % 1017,9 hPa 0,0 mm W 269 1,6 km/h (1 Bft)
02.11.2017 11:15 10,2 C 90 % 1017,9 hPa 0,0 mm W 269 4,8 km/h (1 Bft)
02.11.2017 11:20 10,2 C 88 % 1017,8 hPa 0,0 mm W 269 3,2 km/h (1 Bft)
02.11.2017 11:25 10,4 C 86 % 1017,8 hPa 0,0 mm W 269 0,0 km/h (0 Bft)
02.11.2017 11:30 10,8 C 85 % 1017,8 hPa 0,0 mm W 269 0,0 km/h (0 Bft)
02.11.2017 11:35 11,1 C 83 % 1017,8 hPa 0,0 mm W 269 0,0 km/h (0 Bft)
02.11.2017 11:40 11,5 C 85 % 1017,6 hPa 0,0 mm W 269 0,0 km/h (0 Bft)
02.11.2017 11:45 11,4 C 84 % 1017,5 hPa 0,0 mm W 269 0,0 km/h (0 Bft)
02.11.2017 11:50 11,8 C 84 % 1017,5 hPa 0,0 mm W 269 0,0 km/h (0 Bft)
02.11.2017 11:55 12,5 C 84 % 1017,4 hPa 0,0 mm W 269 0,0 km/h (0 Bft)
02.11.2017 12:00 12,4 C 83 % 1017,4 hPa 0,0 mm W 269 1,6 km/h (1 Bft)
02.11.2017 12:05 13,2 C 78 % 1017,3 hPa 0,0 mm W-NW 287 12,9 km/h (3 Bft)
02.11.2017 12:10 13,9 C 76 % 1017,3 hPa 0,0 mm W-NW 286 12,9 km/h (3 Bft)
02.11.2017 12:15 14,4 C 66 % 1017,2 hPa 0,0 mm W 265 17,7 km/h (3 Bft)
02.11.2017 12:20 14,5 C 61 % 1017,2 hPa 0,0 mm W 263 19,3 km/h (3 Bft)
02.11.2017 12:25 14,4 C 64 % 1017,1 hPa 0,0 mm W 271 17,7 km/h (3 Bft)
02.11.2017 12:30 14,4 C 64 % 1017,1 hPa 0,0 mm W 269 16,1 km/h (3 Bft)
02.11.2017 12:35 14,4 C 61 % 1016,9 hPa 0,0 mm W 267 20,9 km/h (4 Bft)
02.11.2017 12:40 14,4 C 61 % 1016,9 hPa 0,0 mm W 261 20,9 km/h (4 Bft)
02.11.2017 12:45 14,5 C 61 % 1016,9 hPa 0,0 mm W 272 29,0 km/h (5 Bft)
02.11.2017 12:50 14,6 C 61 % 1016,8 hPa 0,0 mm W 277 22,5 km/h (4 Bft)
02.11.2017 12:55 14,7 C 60 % 1016,8 hPa 0,0 mm W 275 19,3 km/h (3 Bft)
02.11.2017 13:00 14,6 C 62 % 1016,8 hPa 0,0 mm W-NW 302 17,7 km/h (3 Bft)
02.11.2017 13:05 14,6 C 61 % 1016,6 hPa 0,0 mm NW 304 20,9 km/h (4 Bft)
02.11.2017 13:10 14,7 C 62 % 1016,7 hPa 0,0 mm W 274 14,5 km/h (3 Bft)
02.11.2017 13:15 14,7 C 61 % 1016,6 hPa 0,0 mm W 260 20,9 km/h (4 Bft)
02.11.2017 13:20 14,7 C 62 % 1016,5 hPa 0,0 mm W-SW 256 17,7 km/h (3 Bft)
02.11.2017 13:25 14,7 C 60 % 1016,4 hPa 0,0 mm W 263 20,9 km/h (4 Bft)
02.11.2017 13:30 14,7 C 59 % 1016,4 hPa 0,0 mm W-NW 287 22,5 km/h (4 Bft)
02.11.2017 13:35 14,6 C 59 % 1016,4 hPa 0,0 mm W 266 27,4 km/h (4 Bft)
02.11.2017 13:40 14,7 C 59 % 1016,3 hPa 0,0 mm W-SW 252 25,7 km/h (4 Bft)
02.11.2017 13:45 14,6 C 58 % 1016,3 hPa 0,0 mm W-NW 289 27,4 km/h (4 Bft)
02.11.2017 13:50 14,7 C 59 % 1016,2 hPa 0,0 mm W-SW 245 19,3 km/h (3 Bft)
02.11.2017 13:55 14,7 C 58 % 1016,1 hPa 0,0 mm W 269 30,6 km/h (5 Bft)
02.11.2017 14:00 14,6 C 59 % 1016,0 hPa 0,0 mm W 267 25,7 km/h (4 Bft)
02.11.2017 14:05 14,7 C 58 % 1015,9 hPa 0,0 mm W-NW 298 30,6 km/h (5 Bft)
02.11.2017 14:10 14,4 C 59 % 1015,8 hPa 0,0 mm SW 233 32,2 km/h (5 Bft)
02.11.2017 14:15 14,3 C 58 % 1015,9 hPa 0,0 mm W-NW 290 27,4 km/h (4 Bft)
02.11.2017 14:20 14,3 C 59 % 1015,8 hPa 0,0 mm W 270 27,4 km/h (4 Bft)
02.11.2017 14:25 14,2 C 60 % 1015,9 hPa 0,0 mm W 279 20,9 km/h (4 Bft)
02.11.2017 14:30 14,2 C 60 % 1015,8 hPa 0,0 mm W-NW 296 27,4 km/h (4 Bft)
02.11.2017 14:35 14,1 C 61 % 1015,9 hPa 0,0 mm W 269 24,1 km/h (4 Bft)
02.11.2017 14:40 13,9 C 61 % 1016,0 hPa 0,0 mm W 266 20,9 km/h (4 Bft)
02.11.2017 14:45 13,9 C 61 % 1016,0 hPa 0,0 mm W-SW 257 33,8 km/h (5 Bft)
02.11.2017 14:50 13,9 C 61 % 1016,0 hPa 0,0 mm W 271 29,0 km/h (5 Bft)
02.11.2017 14:55 13,8 C 62 % 1016,1 hPa 0,0 mm W 279 17,7 km/h (3 Bft)
02.11.2017 15:00 13,8 C 62 % 1016,1 hPa 0,0 mm W-NW 284 25,7 km/h (4 Bft)
02.11.2017 15:05 13,7 C 63 % 1016,1 hPa 0,0 mm W 281 22,5 km/h (4 Bft)
02.11.2017 15:10 13,6 C 63 % 1016,1 hPa 0,0 mm W-NW 300 19,3 km/h (3 Bft)
02.11.2017 15:15 13,4 C 64 % 1016,1 hPa 0,0 mm W-NW 286 16,1 km/h (3 Bft)
02.11.2017 15:20 13,2 C 65 % 1016,1 hPa 0,0 mm W-SW 252 17,7 km/h (3 Bft)
02.11.2017 15:25 13,1 C 65 % 1016,1 hPa 0,0 mm W 260 16,1 km/h (3 Bft)
02.11.2017 15:30 12,8 C 66 % 1016,1 hPa 0,0 mm W-NW 292 14,5 km/h (3 Bft)
02.11.2017 15:35 12,6 C 67 % 1016,2 hPa 0,0 mm W 259 11,3 km/h (2 Bft)
02.11.2017 15:40 12,3 C 68 % 1016,1 hPa 0,0 mm W 279 12,9 km/h (3 Bft)
02.11.2017 15:45 12,1 C 69 % 1016,1 hPa 0,0 mm W 269 11,3 km/h (2 Bft)
02.11.2017 15:50 12,0 C 69 % 1016,1 hPa 0,0 mm W 280 9,7 km/h (2 Bft)
02.11.2017 15:55 11,9 C 69 % 1016,1 hPa 0,0 mm W 269 8,0 km/h (2 Bft)
02.11.2017 16:00 11,8 C 70 % 1016,2 hPa 0,0 mm W 279 8,0 km/h (2 Bft)
02.11.2017 16:05 11,6 C 70 % 1016,2 hPa 0,0 mm W 279 4,8 km/h (1 Bft)
02.11.2017 16:10 11,4 C 71 % 1016,2 hPa 0,0 mm W 279 6,4 km/h (2 Bft)
02.11.2017 16:15 11,3 C 72 % 1016,2 hPa 0,0 mm W 279 6,4 km/h (2 Bft)
02.11.2017 16:20 11,1 C 72 % 1016,2 hPa 0,0 mm W 270 8,0 km/h (2 Bft)
02.11.2017 16:25 11,0 C 73 % 1016,3 hPa 0,0 mm W 269 6,4 km/h (2 Bft)
02.11.2017 16:30 10,9 C 74 % 1016,4 hPa 0,0 mm W 269 6,4 km/h (2 Bft)
02.11.2017 16:35 10,8 C 74 % 1016,4 hPa 0,0 mm W 269 4,8 km/h (1 Bft)
02.11.2017 16:40 10,6 C 74 % 1016,4 hPa 0,0 mm W 268 6,4 km/h (2 Bft)
02.11.2017 16:45 10,4 C 75 % 1016,4 hPa 0,0 mm W 271 6,4 km/h (2 Bft)
02.11.2017 16:50 10,5 C 75 % 1016,5 hPa 0,0 mm W 278 9,7 km/h (2 Bft)
02.11.2017 16:55 10,9 C 74 % 1016,6 hPa 0,0 mm W 260 19,3 km/h (3 Bft)
02.11.2017 17:00 11,4 C 73 % 1016,6 hPa 0,0 mm W-SW 257 19,3 km/h (3 Bft)
02.11.2017 17:05 11,8 C 72 % 1016,7 hPa 0,0 mm W-SW 248 25,7 km/h (4 Bft)
02.11.2017 17:10 12,1 C 71 % 1016,7 hPa 0,0 mm W 269 22,5 km/h (4 Bft)
02.11.2017 17:15 12,2 C 70 % 1016,8 hPa 0,0 mm W 266 20,9 km/h (4 Bft)
02.11.2017 17:20 12,3 C 70 % 1016,9 hPa 0,0 mm W 281 25,7 km/h (4 Bft)
02.11.2017 17:25 12,3 C 70 % 1016,9 hPa 0,0 mm W 267 27,4 km/h (4 Bft)
02.11.2017 17:30 12,2 C 70 % 1016,9 hPa 0,0 mm W 261 17,7 km/h (3 Bft)
02.11.2017 17:35 12,2 C 71 % 1016,9 hPa 0,0 mm W 265 16,1 km/h (3 Bft)
02.11.2017 17:40 12,1 C 71 % 1016,8 hPa 0,0 mm W 269 14,5 km/h (3 Bft)
02.11.2017 17:45 12,0 C 71 % 1016,8 hPa 0,0 mm W 273 12,9 km/h (3 Bft)
02.11.2017 17:50 12,0 C 72 % 1016,9 hPa 0,0 mm W-SW 257 9,7 km/h (2 Bft)
02.11.2017 17:55 11,9 C 72 % 1016,9 hPa 0,0 mm W 263 11,3 km/h (2 Bft)
02.11.2017 18:00 11,8 C 73 % 1017,0 hPa 0,0 mm W 267 9,7 km/h (2 Bft)
02.11.2017 18:05 11,6 C 73 % 1016,9 hPa 0,0 mm W 267 4,8 km/h (1 Bft)
02.11.2017 18:10 11,5 C 74 % 1016,9 hPa 0,0 mm W 267 4,8 km/h (1 Bft)
02.11.2017 18:15 11,4 C 75 % 1016,8 hPa 0,0 mm W 267 4,8 km/h (1 Bft)
02.11.2017 18:20 11,3 C 75 % 1016,9 hPa 0,0 mm W 281 6,4 km/h (2 Bft)
02.11.2017 18:25 11,3 C 75 % 1016,8 hPa 0,0 mm W 281 6,4 km/h (2 Bft)
02.11.2017 18:30 11,3 C 75 % 1016,8 hPa 0,0 mm W 281 3,2 km/h (1 Bft)
02.11.2017 18:35 11,3 C 76 % 1016,8 hPa 0,0 mm W 279 6,4 km/h (2 Bft)
02.11.2017 18:40 11,3 C 75 % 1016,7 hPa 0,0 mm W 271 6,4 km/h (2 Bft)
02.11.2017 18:45 11,4 C 75 % 1016,6 hPa 0,0 mm W 270 8,0 km/h (2 Bft)
02.11.2017 18:50 11,4 C 75 % 1016,6 hPa 0,0 mm W-SW 248 11,3 km/h (2 Bft)
02.11.2017 18:55 11,6 C 74 % 1016,6 hPa 0,0 mm W 261 11,3 km/h (2 Bft)
02.11.2017 19:00 11,7 C 73 % 1016,6 hPa 0,0 mm W-NW 282 16,1 km/h (3 Bft)
02.11.2017 19:05 11,9 C 73 % 1016,6 hPa 0,0 mm W 274 11,3 km/h (2 Bft)
02.11.2017 19:10 11,9 C 72 % 1016,6 hPa 0,0 mm W 265 12,9 km/h (3 Bft)
02.11.2017 19:15 12,1 C 72 % 1016,6 hPa 0,0 mm W-NW 291 11,3 km/h (2 Bft)
02.11.2017 19:20 12,0 C 72 % 1016,6 hPa 0,0 mm W 277 9,7 km/h (2 Bft)
02.11.2017 19:25 11,9 C 73 % 1016,5 hPa 0,0 mm W 271 6,4 km/h (2 Bft)
02.11.2017 19:30 11,8 C 73 % 1016,6 hPa 0,0 mm W 271 4,8 km/h (1 Bft)
02.11.2017 19:35 11,7 C 73 % 1016,7 hPa 0,0 mm W 271 4,8 km/h (1 Bft)
02.11.2017 19:40 11,7 C 74 % 1016,6 hPa 0,0 mm W 278 9,7 km/h (2 Bft)
02.11.2017 19:45 11,7 C 74 % 1016,6 hPa 0,0 mm W-NW 289 8,0 km/h (2 Bft)
02.11.2017 19:50 11,7 C 74 % 1016,6 hPa 0,0 mm W-NW 288 6,4 km/h (2 Bft)
02.11.2017 19:55 11,7 C 74 % 1016,7 hPa 0,0 mm W-NW 288 6,4 km/h (2 Bft)
02.11.2017 20:00 11,6 C 74 % 1016,6 hPa 0,0 mm W-NW 288 6,4 km/h (2 Bft)
02.11.2017 20:05 11,6 C 75 % 1016,5 hPa 0,0 mm W-NW 288 4,8 km/h (1 Bft)
02.11.2017 20:10 11,6 C 75 % 1016,5 hPa 0,0 mm W 263 6,4 km/h (2 Bft)
02.11.2017 20:15 11,6 C 75 % 1016,5 hPa 0,0 mm W 263 4,8 km/h (1 Bft)
02.11.2017 20:20 11,6 C 75 % 1016,5 hPa 0,0 mm W 263 4,8 km/h (1 Bft)
02.11.2017 20:25 11,5 C 75 % 1016,6 hPa 0,0 mm W 267 4,8 km/h (1 Bft)
02.11.2017 20:30 11,5 C 76 % 1016,6 hPa 0,0 mm W-NW 284 6,4 km/h (2 Bft)
02.11.2017 20:35 11,6 C 76 % 1016,6 hPa 0,0 mm W-NW 283 6,4 km/h (2 Bft)
02.11.2017 20:40 11,6 C 76 % 1016,7 hPa 0,0 mm W 281 9,7 km/h (2 Bft)
02.11.2017 20:45 11,6 C 76 % 1016,7 hPa 0,0 mm W 281 4,8 km/h (1 Bft)
02.11.2017 20:50 11,6 C 76 % 1016,6 hPa 0,0 mm W 281 3,2 km/h (1 Bft)
02.11.2017 20:55 11,4 C 76 % 1016,7 hPa 0,0 mm W 281 1,6 km/h (1 Bft)
02.11.2017 21:00 11,4 C 76 % 1016,7 hPa 0,0 mm W 281 3,2 km/h (1 Bft)
02.11.2017 21:05 11,4 C 77 % 1016,8 hPa 0,0 mm W 281 4,8 km/h (1 Bft)
02.11.2017 21:10 11,3 C 79 % 1016,8 hPa 0,0 mm W 281 0,0 km/h (0 Bft)
02.11.2017 21:15 11,3 C 79 % 1016,9 hPa 0,0 mm W 281 0,0 km/h (0 Bft)
02.11.2017 21:20 11,1 C 81 % 1016,9 hPa 0,2 mm W 281 0,0 km/h (0 Bft)
02.11.2017 21:25 11,0 C 82 % 1016,9 hPa 0,0 mm W 281 4,8 km/h (1 Bft)
02.11.2017 21:30 10,8 C 83 % 1017,0 hPa 0,0 mm W 281 0,0 km/h (0 Bft)
02.11.2017 21:35 10,6 C 85 % 1017,1 hPa 0,2 mm W 281 1,6 km/h (1 Bft)
02.11.2017 21:40 10,3 C 86 % 1017,1 hPa 0,2 mm W 281 3,2 km/h (1 Bft)
02.11.2017 21:45 10,2 C 88 % 1017,0 hPa 0,0 mm W 281 1,6 km/h (1 Bft)
02.11.2017 21:50 10,1 C 89 % 1017,0 hPa 0,0 mm W 281 4,8 km/h (1 Bft)
02.11.2017 21:55 9,9 C 89 % 1017,0 hPa 0,0 mm W 281 0,0 km/h (0 Bft)
02.11.2017 22:00 9,7 C 90 % 1017,0 hPa 0,0 mm W 281 0,0 km/h (0 Bft)
02.11.2017 22:05 9,6 C 91 % 1017,1 hPa 0,0 mm W 281 0,0 km/h (0 Bft)
02.11.2017 22:10 9,6 C 91 % 1017,0 hPa 0,0 mm W 281 0,0 km/h (0 Bft)
02.11.2017 22:15 9,7 C 91 % 1016,9 hPa 0,0 mm W 281 0,0 km/h (0 Bft)
02.11.2017 22:20 9,6 C 91 % 1016,9 hPa 0,0 mm W 281 0,0 km/h (0 Bft)
02.11.2017 22:25 9,6 C 92 % 1017,0 hPa 0,0 mm W 281 1,6 km/h (1 Bft)
02.11.2017 22:30 9,6 C 92 % 1017,0 hPa 0,0 mm W 281 0,0 km/h (0 Bft)
02.11.2017 22:35 9,6 C 92 % 1016,9 hPa 0,0 mm W 281 0,0 km/h (0 Bft)
02.11.2017 22:40 9,7 C 92 % 1016,9 hPa 0,0 mm W 281 11,3 km/h (2 Bft)
02.11.2017 22:45 9,8 C 92 % 1016,9 hPa 0,0 mm W 281 3,2 km/h (1 Bft)
02.11.2017 22:50 9,8 C 92 % 1016,9 hPa 0,0 mm W 277 6,4 km/h (2 Bft)
02.11.2017 22:55 9,8 C 92 % 1016,8 hPa 0,0 mm W 278 4,8 km/h (1 Bft)
02.11.2017 23:00 9,8 C 91 % 1017,0 hPa 0,0 mm W 278 3,2 km/h (1 Bft)
02.11.2017 23:05 9,8 C 91 % 1017,0 hPa 0,0 mm W 278 0,0 km/h (0 Bft)
02.11.2017 23:10 9,9 C 91 % 1017,1 hPa 0,0 mm W 278 0,0 km/h (0 Bft)
02.11.2017 23:15 9,8 C 91 % 1017,2 hPa 0,0 mm W 278 0,0 km/h (0 Bft)
02.11.2017 23:20 9,8 C 91 % 1017,0 hPa 0,0 mm W 278 0,0 km/h (0 Bft)
02.11.2017 23:25 9,8 C 91 % 1017,2 hPa 0,0 mm W 278 0,0 km/h (0 Bft)
02.11.2017 23:30 9,9 C 91 % 1017,1 hPa 0,0 mm W 278 0,0 km/h (0 Bft)
02.11.2017 23:35 9,9 C 91 % 1017,2 hPa 0,0 mm W 280 0,0 km/h (0 Bft)
02.11.2017 23:40 9,9 C 91 % 1017,2 hPa 0,0 mm W 280 0,0 km/h (0 Bft)
02.11.2017 23:45 9,9 C 91 % 1017,2 hPa 0,0 mm W 280 0,0 km/h (0 Bft)
02.11.2017 23:50 9,9 C 91 % 1017,1 hPa 0,0 mm W 280 0,0 km/h (0 Bft)
02.11.2017 23:55 9,8 C 91 % 1017,1 hPa 0,2 mm W 280 0,0 km/h (0 Bft)
_ Min-Zeit 03:50 13:45 14:10 - - - 00:00
Minimum _ 2,2 C 58 % 1015,8 hPa - - - 0,0 km/h (0 Bft)
_ Max-Zeit 12:55 03:50 00:00 21:20 - - 14:45
Maximum _ 14,7 C 95 % 1022,4 hPa 0,2 mm - - 33,8 km/h
W (5 Bft)
Durchschnitt _ 8,2 C 84 % 1018,0 hPa #0,8 mm W - 5,9 km/h (2 Bft)